When you browse on this site, cookies collect data to enhance your experience and personalize the content and advertising you see.
Visit our Privacy Policy to learn more. By continuing to use the site, you agree to this use of cookies and data.
  • In Lithuania
  • List of Countries
  • For 7 days
  • Water Temperature
  • Satellite Maps
  • Weather Map
  • Weather Widgets
  • user-avatar
    Login

    Hourly Weather Ogarevo

    Today, 16 June, Sunday

    Time Temperature Precipitation Wind Pressure Humidity
    00:00 +15°C° 0 mm 2 mps 738 mmHg 93%
    01:00 +15°C° 0 mm 2 mps 738 mmHg 93%
    02:00 +14°C° 0 mm 1 mps 738 mmHg 93%
    03:00 +13°C° 0 mm 1 mps 739 mmHg 93%
    04:00 +14°C° 0 mm 1 mps 738 mmHg 92%
    05:00 +15°C° 0 mm 1 mps 738 mmHg 90%
    06:00 +14°C° 0 mm 0 mps 738 mmHg 89%
    07:00 +15°C° 0 mm 0 mps 738 mmHg 86%
    08:00 +16°C° 0 mm 0 mps 739 mmHg 82%
    09:00 +17°C° 0 mm 0 mps 739 mmHg 79%
    10:00 +20°C° 0.5 mm 1 mps 739 mmHg 78%
    11:00 +20°C° 0.5 mm 2 mps 739 mmHg 77%
    12:00 +20°C° 0.5 mm 2 mps 739 mmHg 76%
    13:00 +21°C° 0.3 mm 3 mps 739 mmHg 72%
    14:00 +22°C° 0.3 mm 3 mps 739 mmHg 68%
    15:00 +22°C° 0.3 mm 3 mps 739 mmHg 65%
    16:00 +22°C° 0.1 mm 3 mps 739 mmHg 67%
    17:00 +22°C° 0.1 mm 3 mps 739 mmHg 69%
    18:00 +22°C° 0.1 mm 3 mps 738 mmHg 72%
    19:00 +20°C° 0.1 mm 2 mps 739 mmHg 76%
    20:00 +19°C° 0.1 mm 2 mps 739 mmHg 81%
    21:00 +18°C° 0.1 mm 1 mps 739 mmHg 86%
    22:00 +18°C° 0 mm 1 mps 739 mmHg 87%
    23:00 +16°C° 0 mm 1 mps 739 mmHg 87%

    Tomorrow, 17 June, Monday

    Time Temperature Precipitation Wind Pressure Humidity
    00:00 +15°C° 0 mm 1 mps 739 mmHg 88%
    01:00 +15°C° 0 mm 1 mps 739 mmHg 88%
    02:00 +15°C° 0 mm 1 mps 739 mmHg 89%
    03:00 +14°C° 0 mm 0 mps 740 mmHg 89%
    04:00 +15°C° 0 mm 1 mps 740 mmHg 89%
    05:00 +16°C° 0 mm 1 mps 740 mmHg 88%
    06:00 +16°C° 0 mm 1 mps 740 mmHg 88%
    07:00 +19°C° 0 mm 1 mps 740 mmHg 84%
    08:00 +20°C° 0 mm 1 mps 740 mmHg 79%
    09:00 +21°C° 0 mm 1 mps 740 mmHg 74%
    10:00 +23°C° 0.1 mm 2 mps 740 mmHg 69%
    11:00 +24°C° 0.1 mm 2 mps 740 mmHg 64%
    12:00 +25°C° 0.1 mm 3 mps 740 mmHg 58%
    13:00 +25°C° 0 mm 3 mps 740 mmHg 60%
    14:00 +25°C° 0 mm 3 mps 740 mmHg 61%
    15:00 +25°C° 0 mm 4 mps 739 mmHg 62%
    16:00 +25°C° 0.1 mm 3 mps 739 mmHg 65%
    17:00 +24°C° 0.1 mm 3 mps 739 mmHg 68%
    18:00 +24°C° 0.1 mm 2 mps 739 mmHg 71%
    19:00 +21°C° 0 mm 2 mps 739 mmHg 75%
    20:00 +21°C° 0 mm 1 mps 739 mmHg 78%
    21:00 +20°C° 0 mm 1 mps 739 mmHg 82%
    22:00 +20°C° 0.1 mm 1 mps 739 mmHg 82%
    23:00 +20°C° 0.1 mm 1 mps 739 mmHg 83%

    Day after tomorrow, 18 June, Tuesday

    Time Temperature Precipitation Wind Pressure Humidity
    00:00 +20°C° 0.1 mm 1 mps 739 mmHg 83%
    01:00 +19°C° 0.1 mm 1 mps 739 mmHg 85%
    02:00 +19°C° 0.1 mm 1 mps 739 mmHg 86%
    03:00 +19°C° 0.1 mm 1 mps 739 mmHg 87%
    04:00 +19°C° 0.1 mm 1 mps 739 mmHg 89%
    05:00 +19°C° 0.1 mm 1 mps 739 mmHg 90%
    06:00 +19°C° 0.1 mm 1 mps 739 mmHg 91%
    07:00 +19°C° 1 mm 2 mps 739 mmHg 89%
    08:00 +20°C° 1 mm 2 mps 739 mmHg 87%
    09:00 +21°C° 1 mm 3 mps 739 mmHg 85%
    10:00 +22°C° 2.5 mm 3 mps 739 mmHg 82%
    11:00 +24°C° 2.5 mm 3 mps 739 mmHg 80%
    12:00 +24°C° 2.5 mm 3 mps 739 mmHg 78%
    13:00 +24°C° 0.3 mm 3 mps 739 mmHg 76%
    14:00 +25°C° 0.3 mm 3 mps 739 mmHg 74%
    15:00 +25°C° 0.3 mm 4 mps 739 mmHg 73%
    16:00 +25°C° 0.3 mm 3 mps 739 mmHg 75%
    17:00 +24°C° 0.3 mm 3 mps 739 mmHg 77%
    18:00 +24°C° 0.3 mm 3 mps 739 mmHg 80%
    19:00 +21°C° 0 mm 2 mps 739 mmHg 82%
    20:00 +20°C° 0 mm 2 mps 739 mmHg 84%
    21:00 +20°C° 0 mm 1 mps 739 mmHg 86%
    22:00 +19°C° 0 mm 1 mps 739 mmHg 86%
    23:00 +19°C° 0 mm 1 mps 740 mmHg 86%

    19 June, Wednesday

    Time Temperature Precipitation Wind Pressure Humidity
    00:00 +17°C° 0 mm 2 mps 740 mmHg 85%
    01:00 +17°C° 0 mm 2 mps 740 mmHg 86%
    02:00 +16°C° 0 mm 2 mps 740 mmHg 87%
    03:00 +16°C° 0 mm 2 mps 740 mmHg 88%
    04:00 +16°C° 0 mm 2 mps 740 mmHg 88%
    05:00 +17°C° 0 mm 2 mps 741 mmHg 88%
    06:00 +17°C° 0 mm 3 mps 741 mmHg 88%
    07:00 +18°C° 0 mm 3 mps 741 mmHg 84%
    08:00 +20°C° 0 mm 3 mps 741 mmHg 79%
    09:00 +21°C° 0 mm 3 mps 741 mmHg 75%
    10:00 +22°C° 0 mm 3 mps 741 mmHg 69%
    11:00 +24°C° 0 mm 3 mps 742 mmHg 64%
    12:00 +25°C° 0 mm 3 mps 742 mmHg 58%
    13:00 +25°C° 0 mm 3 mps 742 mmHg 57%
    14:00 +25°C° 0 mm 3 mps 742 mmHg 55%
    15:00 +26°C° 0 mm 3 mps 742 mmHg 54%
    16:00 +26°C° 0 mm 2 mps 742 mmHg 58%
    17:00 +25°C° 0 mm 2 mps 742 mmHg 63%
    18:00 +25°C° 0 mm 2 mps 741 mmHg 68%
    19:00 +23°C° 0 mm 2 mps 741 mmHg 72%
    20:00 +22°C° 0 mm 1 mps 741 mmHg 76%
    21:00 +20°C° 0 mm 1 mps 741 mmHg 80%
    22:00 +19°C° 0 mm 1 mps 742 mmHg 81%
    23:00 +16°C° 0 mm 0 mps 742 mmHg 81%

    20 June, Thursday

    Time Temperature Precipitation Wind Pressure Humidity
    00:00 +16°C° 0 mm 0 mps 742 mmHg 81%
    01:00 +15°C° 0 mm 0 mps 742 mmHg 82%
    02:00 +16°C° 0 mm 1 mps 742 mmHg 82%
    03:00 +16°C° 0 mm 1 mps 742 mmHg 83%
    04:00 +16°C° 0 mm 1 mps 742 mmHg 83%
    05:00 +18°C° 0 mm 1 mps 743 mmHg 83%
    06:00 +19°C° 0 mm 1 mps 743 mmHg 83%
    07:00 +21°C° 0 mm 1 mps 743 mmHg 78%
    08:00 +22°C° 0 mm 1 mps 743 mmHg 72%
    09:00 +24°C° 0 mm 1 mps 743 mmHg 67%
    10:00 +25°C° 0 mm 1 mps 743 mmHg 62%
    11:00 +26°C° 0 mm 1 mps 743 mmHg 57%
    12:00 +27°C° 0 mm 1 mps 743 mmHg 52%
    13:00 +27°C° 0 mm 1 mps 743 mmHg 51%
    14:00 +27°C° 0 mm 1 mps 743 mmHg 50%
    15:00 +27°C° 0 mm 2 mps 743 mmHg 50%
    16:00 +27°C° 0 mm 2 mps 743 mmHg 54%
    17:00 +27°C° 0 mm 1 mps 743 mmHg 58%
    18:00 +27°C° 0 mm 1 mps 742 mmHg 63%
    19:00 +25°C° 0 mm 1 mps 742 mmHg 65%
    20:00 +23°C° 0 mm 1 mps 743 mmHg 67%
    21:00 +21°C° 0 mm 1 mps 743 mmHg 69%
    22:00 +20°C° 0 mm 1 mps 743 mmHg 71%
    23:00 +20°C° 0 mm 1 mps 743 mmHg 73%

    21 June, Friday

    Time Temperature Precipitation Wind Pressure Humidity
    00:00 +19°C° 0 mm 1 mps 743 mmHg 75%
    01:00 +19°C° 0 mm 1 mps 743 mmHg 77%
    02:00 +18°C° 0 mm 1 mps 743 mmHg 79%
    03:00 +18°C° 0 mm 1 mps 743 mmHg 81%
    04:00 +19°C° 0 mm 1 mps 743 mmHg 82%
    05:00 +19°C° 0 mm 1 mps 743 mmHg 83%
    06:00 +19°C° 0 mm 2 mps 743 mmHg 83%
    07:00 +20°C° 0 mm 2 mps 743 mmHg 79%
    08:00 +23°C° 0 mm 2 mps 743 mmHg 74%
    09:00 +25°C° 0 mm 2 mps 744 mmHg 69%
    10:00 +25°C° 0 mm 3 mps 743 mmHg 65%
    11:00 +26°C° 0 mm 3 mps 743 mmHg 61%
    12:00 +27°C° 0 mm 3 mps 743 mmHg 56%
    13:00 +27°C° 0 mm 3 mps 743 mmHg 57%
    14:00 +27°C° 0 mm 3 mps 743 mmHg 57%
    15:00 +27°C° 0 mm 4 mps 743 mmHg 58%
    16:00 +27°C° 0 mm 3 mps 742 mmHg 62%
    17:00 +27°C° 0 mm 3 mps 742 mmHg 65%
    18:00 +27°C° 0 mm 2 mps 742 mmHg 69%
    19:00 +25°C° 0 mm 2 mps 742 mmHg 73%
    20:00 +23°C° 0 mm 2 mps 742 mmHg 77%
    21:00 +21°C° 0 mm 2 mps 742 mmHg 80%
    22:00 +20°C° 0 mm 2 mps 742 mmHg 81%
    23:00 +19°C° 0 mm 2 mps 742 mmHg 82%
    Show more